Wenatchee, WA
on Monday, November 5, 2012

Monday
Previous Day Next Day
Daily Summary
 ActualAverageRecord
Temperature
Mean Temperature °F 38°F  
Max Temperature 57°F 46°F 58°F (1989)
Min Temperature 36°F 30°F 14°F (1973)
Degree Days
Heating Degree Days 18 27  
Month to date heating degree days 84 131  
Since 1 July heating degree days 883 1087  
Cooling Degree Days 0 0  
Month to date cooling degree days 0 0  
Year to date cooling degree days 294 249  
Growing Degree Days4 (Base °F )  
Moisture
Dew Point 41°F   
Average Humidity 66    
Maximum Humidity 93    
Minimum Humidity 38    
Precipitation
Precipitation 0.00 in 0.06 in 0.42 in (2005)
Month to date precipitation 0.25 0.29  
Year to date precipitation 17.35 12.63  
Snow
Snow 0.00 in 0.00 in in ()
Month to date snowfall 0.0 0.2  
Since 1 July snowfall T 0.3  
Since 1 September snowfall T 0.3  
Snow Depth 0.00 in   
Wind
Wind Speed 5 mph   
Max Wind Speed 18 mph   
Max Gust Speed 25 mph   
Visibility 9 miles   
Events     

Key: T is trace of precipitation, MM is missing value
Source: NWS Daily Summary
Time(PST)TemperatureDew PointHumidity Pressure Visibility Wind DirectionWind SpeedGust SpeedPrecipitationEvents Conditions
12:55 AM 50.0°F 46.0°F 86% 30.21 in 10.0 miles Calm Calm - N/A   Mostly Cloudy
1:55 AM 48.9°F 45.0°F 86% 30.18 in 10.0 miles East 4.6 mph - N/A   Clear
2:55 AM 50.0°F 46.0°F 86% 30.17 in 10.0 miles Calm Calm - N/A   Clear
3:55 AM 48.9°F 46.0°F 90% 30.15 in 10.0 miles NE 3.5 mph - N/A   Clear
4:55 AM 48.0°F 45.0°F 89% 30.15 in 10.0 miles Calm Calm - N/A   Clear
5:55 AM 46.9°F 43.0°F 86% 30.16 in 8.0 miles NNW 4.6 mph - N/A   Clear
6:55 AM 48.0°F 45.0°F 89% 30.18 in 10.0 miles Calm Calm - N/A   Clear
7:33 AM 46.4°F 44.6°F 93% 30.19 in 1.8 miles WSW 3.5 mph - N/A   Clear
7:42 AM 48.2°F 44.6°F 87% 30.20 in 3.0 miles West 3.5 mph - N/A   Clear
7:55 AM 48.9°F 46.0°F 90% 30.22 in 5.0 miles West 3.5 mph - N/A   Clear
8:55 AM 51.1°F 46.0°F 83% 30.25 in 10.0 miles South 4.6 mph - N/A   Clear
9:55 AM 57.9°F 41.0°F 53% 30.25 in 10.0 miles NW 12.7 mph - N/A   Clear
10:55 AM 60.1°F 39.9°F 47% 30.25 in 10.0 miles NW 18.4 mph - N/A   Clear
11:55 AM 63.0°F 37.0°F 38% 30.25 in 10.0 miles NW 18.4 mph 25.3 mph N/A   Clear
12:55 PM 63.0°F 37.0°F 38% 30.24 in 10.0 miles NNW 9.2 mph - N/A   Clear
2:55 PM 61.0°F 35.1°F 38% 30.23 in 10.0 miles NW 15.0 mph - N/A   Clear
3:55 PM 60.1°F 35.1°F 39% 30.23 in 10.0 miles NW 15.0 mph - N/A   Clear
4:55 PM 57.0°F 36.0°F 45% 30.22 in 10.0 miles North 8.1 mph - N/A   Clear
5:55 PM 57.0°F 36.0°F 45% 30.23 in 10.0 miles NW 8.1 mph - N/A   Clear
6:55 PM 55.0°F 37.0°F 51% 30.21 in 10.0 miles WNW 5.8 mph - N/A   Clear
7:55 PM 53.1°F 37.9°F 57% 30.21 in 10.0 miles NNW 6.9 mph - N/A   Clear
8:55 PM 52.0°F 37.0°F 57% 30.21 in 10.0 miles NNW 11.5 mph - N/A   Clear
9:32 PM 50.0°F 37.4°F 62% 30.20 in 10.0 miles North - - N/A   Clear
9:40 PM 51.8°F 37.4°F 58% 30.20 in 10.0 miles NW 10.4 mph - N/A   Clear
9:55 PM 50.0°F 37.9°F 63% 30.20 in 10.0 miles West 8.1 mph - N/A   Clear
10:55 PM 48.0°F 39.0°F 71% 30.19 in 10.0 miles WNW 4.6 mph - N/A   Clear
11:55 PM 46.9°F 37.0°F 68% 30.19 in 10.0 miles Calm Calm - N/A   Clear
Moon Phase
Nov. 05 Nov. 06 Nov. 13 Nov. 20 Nov. 28
Sunrise:06:51 AM (PST) Moon Rise:10:20 PM (PST)11/5
Sunset:04:36 PM (PST) Moon Set:12:14 PM (PST)11/5

Copyright © 2014 The Weather Underground, Inc.